Location: Oakhurst
(33.6448°N, 111.9543°W)
Time: 05:21:06
(UTC+00:00)

Max Valier Satellite - Pass Details

Date: 31 July 2021
Orbit: 486 x 502 km, 97.2° (Epoch: 23 September)

Event Time Altitude Azimuth Distance (km) Brightness Sun altitude
Exits shadow 04:14:56 19° 207° (SSW) 1,223 ? -19.7°
Maximum altitude 04:17:01 34° 262° (W) 812 ? -20.0°
Drops below altitude 10° 04:20:20 10° 329° (NNW) 1,676 ? -20.5°
Sets 04:22:32 0° 339° (NNW) 2,564 ? -20.9°
